Tracking 27422 objects as of 30-May-2023
HD Live streaming from Space Station
objects crossing your sky now

STARLINK-4528

Track STARLINK-4528 now!
10-day predictions
STARLINK-4528 is classified as:


NORAD ID: 53399
Int'l Code: 2022-097M
Perigee: 546.1 km
Apogee: 547.7 km
Inclination: 53.2 °
Period: 95.4 minutes
Semi major axis: 6917 km
RCS: Unknown
Launch date: August 10, 2022
Source: United States (US)
Launch site: AIR FORCE EASTERN TEST RANGE (AFETR)
Your satellite tracking list
Your tracking list is empty




NASA's NSSDC Master Catalog

Two Line Element Set (TLE):
1 53399U 22097M   23149.82617151 -.00000532  00000-0 -15319-4 0  9994
2 53399  53.2170   0.0170 0001118  88.6355 271.4766 15.08837937 45309
Source of the keplerian elements: AFSPC